Marianna, FL

11:05 PM CDT on May 23, 2017 (GMT -0500)
Marianna Municipal

Weather History for KMAI - March, 2013

Change the Weather History Date:

Saturday, March 16, 2013

  Actual Average Record
Temperature  
Mean Temperature 61 °F 60 °F  
Max Temperature 78 °F 73 °F 87 °F (2012)
Min Temperature 43 °F 48 °F 30 °F (2017)
Degree Days  
Heating Degree Days 4    
Month to date heating degree days 190  
Since 1 July heating degree days 1193  
Cooling Degree Days 0    
Month to date cooling degree days 0  
Year to date cooling degree days 59  
Growing Degree Days 10 (Base 50)    
Moisture  
Dew Point 49 °F    
Average Humidity 86    
Maximum Humidity 86    
Minimum Humidity 86    
Precipitation  
Precipitation 0.00 in 0.16 in 3.87 in (2014)
Month to date precipitation 1.32 2.50  
Year to date precipitation 15.19 12.48  
Sea Level Pressure  
Sea Level Pressure 30.08 in    
Wind  
Wind Speed 7 mph (SW)    
Max Wind Speed 18 mph    
Max Gust Speed 24 mph    
Visibility 10 miles    
Events      
T = Trace of Precipitation, MM = Missing Value Source: NWS Daily Summary

Daily Weather History Graph

Daily Weather History Graph

Search for Another Location

Airport or City:

Trip Planner

Search our weather history database for the weather conditions in past years. The results will help you decide how hot, cold, wet, or windy it might be!

Date:

Astronomy

Mar. 16, 2013 Rise Set
Actual Time 6:49 AM CDT 6:49 PM CDT
Civil Twilight 6:25 AM CDT 7:13 PM CDT
Nautical Twilight 5:57 AM CDT 7:41 PM CDT
Astronomical Twilight 5:28 AM CDT 8:10 PM CDT
Moon 9:38 AM CDT (3/16) 11:36 PM CDT (3/16)
Length of Visible Light 12h 48m
Length of Day
12h 00m
Waxing Crescent, 23% of the Moon is Illuminated
Mar 16
Waxing Crescent
Mar 19
First Quarter
Mar 27
Full
Apr 2
Last Quarter
Apr 10
New

Hourly Weather History & Observations

Time (CDT) Temp. Dew Point Humidity Pressure Visibility Wind Dir Wind Speed Gust Speed Precip Events Conditions
12:53 AM 51.1 °F 46.9 °F 86% 30.13 in 10.0 mi SSW 6.9 mph - N/A   Clear
1:53 AM 52.0 °F 48.0 °F 86% 30.11 in 10.0 mi South 6.9 mph - N/A   Clear
2:53 AM 50.0 °F 46.0 °F 86% 30.11 in 10.0 mi Calm Calm - N/A   Clear
3:53 AM 48.0 °F 46.0 °F 93% 30.09 in 10.0 mi Calm Calm - N/A   Clear
4:53 AM 46.0 °F 44.1 °F 93% 30.09 in 7.0 mi Calm Calm - N/A   Clear
5:53 AM 43.0 °F 42.1 °F 97% 30.11 in 10.0 mi Calm Calm - N/A   Clear
6:53 AM 43.0 °F 41.0 °F 93% 30.12 in 10.0 mi Calm Calm - N/A   Clear
7:53 AM 48.0 °F 45.0 °F 89% 30.13 in 10.0 mi Calm Calm - N/A   Clear
8:53 AM 57.9 °F 53.1 °F 84% 30.13 in 10.0 mi WSW 3.5 mph - N/A   Clear
9:53 AM 66.9 °F 54.0 °F 63% 30.13 in 10.0 mi West 11.5 mph - N/A   Clear
10:53 AM 71.1 °F 48.9 °F 45% 30.12 in 10.0 mi West 13.8 mph - N/A   Clear
11:53 AM 73.9 °F 51.1 °F 45% 30.10 in 10.0 mi SW 12.7 mph - N/A   Clear
12:53 PM 75.0 °F 50.0 °F 41% 30.08 in 10.0 mi SW 13.8 mph 24.2 mph N/A   Partly Cloudy
1:53 PM 75.9 °F 50.0 °F 40% 30.06 in 10.0 mi WSW 12.7 mph 20.7 mph N/A   Mostly Cloudy
2:53 PM 77.0 °F 50.0 °F 39% 30.03 in 10.0 mi WSW 16.1 mph 23.0 mph N/A   Scattered Clouds
3:53 PM 75.9 °F 48.0 °F 37% 30.01 in 10.0 mi WSW 11.5 mph 24.2 mph N/A   Partly Cloudy
4:53 PM 75.0 °F 48.9 °F 40% 30.01 in 10.0 mi SW 16.1 mph 19.6 mph N/A   Partly Cloudy
5:53 PM 72.0 °F 48.9 °F 44% 30.01 in 10.0 mi SW 11.5 mph 21.9 mph N/A   Partly Cloudy
6:53 PM 68.0 °F 50.0 °F 52% 30.01 in 10.0 mi SW 9.2 mph - N/A   Clear
7:53 PM 63.0 °F 50.0 °F 63% 30.03 in 10.0 mi SSW 6.9 mph - N/A   Clear
8:53 PM 61.0 °F 52.0 °F 72% 30.05 in 10.0 mi SSW 6.9 mph - N/A   Clear
9:53 PM 61.0 °F 54.0 °F 78% 30.06 in 10.0 mi South 5.8 mph - N/A   Clear
10:53 PM 57.9 °F 54.0 °F 87% 30.06 in 10.0 mi South 8.1 mph - N/A   Clear
11:53 PM 57.9 °F 54.0 °F 87% 30.05 in 10.0 mi South 3.5 mph - N/A   Clear